Tracking 31027 objects as of 19-Jul-2025
HD Live streaming from Space Station
objects crossing your sky now

STARLINK-11250

Track STARLINK-11250 now!
10-day predictions
STARLINK-11250 is classified as:


NORAD ID: 60910
Int'l Code: 2024-154H
Perigee: 366.5 km
Apogee: 367.3 km
Inclination: 53.2 °
Period: 91.7 minutes
Semi major axis: 6737 km
RCS: Unknown
Launch date: August 31, 2024
Source: United States (US)
Launch site: AIR FORCE EASTERN TEST RANGE (AFETR)
Your satellite tracking list
NSIGHT-1
Track 1 satellite(s)




NASA's NSSDC Master Catalog

Two Line Element Set (TLE):
1 60910U 24154H   25199.26160806  .00001011  00000-0  13200-4 0  9990
2 60910  53.1583 206.9949 0000582  79.9626 280.1457 15.69697750 51699
Source of the keplerian elements: AFSPC